Карточка аэропорта UNOO

Внимание!
Информация на этой странице в стадии наполнения.
Если вы не увидели какой-то информации, или заметили неточность - пожалуйста сообщите нам!
Спасибо!
Команда RU-STAFF
Название аэропортаЦентральный
Название аэропорта (англ.)Tsentralny
Превышение312 ft. (95.1 m.)
Координаты54°58.02', 73°18.6'
Высота перехода900m
Эшелон переходаQFE>=733:FL50; QFE<733:FL60;
Коды ответчика5440-5457
Зона ОрВДНовосибирск РПИ (UNNT)
Данные METARUNOO 200500Z 25004MPS CAVOK 21/13 Q0999 R25/CLRD60 NOSIG RMK QFE741
Проноз погоды (TAF)UNOO 200155Z 2003/2103 VRB01MPS 8000 SCT030CB BECMG 2004/2006 24003G10MPS TEMPO 2009/2015 -SHRA SCT011 BKN020CB BECMG 2013/2015 26003MPS
NOTAMshow/hide NOTAM
AWOS   TABLE

Информация о ВПП

ВПП Длина ВПП (м.) Покрытие Курс ВПП Частота ILS
072501Асфальтобетон65108.3
252501Асфальтобетон245110.1

Диспетчерские позиции

Позывной Наименование органа УВД Частота
UNOO_GNDОмск-Руление121.700
UNOO_TWRОмск-Старт119.000
UNOO_APPОмск-Подход131.200
UNOO_R_APPОмск-Круг119.050



Спутниковое изображение